Regional Weather Roundup
Issued by NWS State College, PA

Home | Current Version | Previous Version | Graphics & Text | Print | Product List | Glossary On
Versions: 1 2 3 4 5 6 7 8 9 10 11 12 13 14 15 16 17 18 19 20 21 22 23 24 25 26 27 28 29 30 31 32 33 34 35 36 37 38 39 40 41 42 43 44 45 46 47 48 49 50
000
ASUS41 KCTP 241003
RWRCTP

REGIONAL WEATHER ROUNDUP
NATIONAL WEATHER SERVICE STATE COLLEGE PA
600 AM EDT TUE APR 24 2018

Note: "fair" indicates few or no clouds below 12,000 feet with no
significant weather and/or obstructions to visibility.

* = STATION THAT DOES NOT REPORT PRECIPITATION /E.G. RAIN...SNOW...ETC/
    THUNDER OR FOG.

PAZ002>004-007>009-013>016-020>023-029>032-241100-
WESTERN PENNSYLVANIA

CITY           SKY/WX    TMP DP  RH WIND       PRES   REMARKS
ERIE           CLOUDY    57  43  59 S12       30.19S
MEADVILLE      LGT RAIN  49  46  90 VRB6      30.20S
FRANKLIN*      CLOUDY    48  43  82 E9        30.21F
NEW CASTLE     LGT RAIN  52  44  74 E9G16     30.18F
BEAVER COUNTY  NOT AVBL
BUTLER*        MOCLDY    50  43  77 E9        30.19F
PITTSBURGH INT CLOUDY    52  43  71 E9        30.16F
PITTSBURGH     CLOUDY    51  40  65 E7        30.16F
INDIANA*       CLOUDY    52  36  54 VRB7G16   30.25S
LATROBE        MOCLDY    54  36  50 E3        30.19S
WASHINGTON CO* LGT RAIN  51  41  68 SE8G21    30.18S
$$

PAZ004>006-010>012-017>019-024>028-033>037-041-042-045-046-049>053-241100-
CENTRAL PENNSYLVANIA

CITY           SKY/WX    TMP DP  RH WIND       PRES   REMARKS
BRADFORD       FAIR      50  35  56 S9        30.24S
DUBOIS         CLOUDY    46  38  73 SE14G20   30.24R
CLEARFIELD     LGT RAIN  46  35  65 SE7       30.27S
JOHNSTOWN      CLOUDY    45  32  60 SE9G17    30.21F
ALTOONA        CLOUDY    49  33  54 SE7       30.26F
STATE COLLEGE  CLOUDY    48  30  49 S7        30.29F
WILLIAMSPORT   FAIR      44  34  67 SE3       30.32R
SELINSGROVE    FAIR      40  35  83 N5        30.33S
FT INDIANTOWN  NOT AVBL
CAPITAL CITY   FAIR      49  33  54 E9        30.33S
HARRISBURG     FAIR      46  33  60 SE7       30.33S
YORK           FAIR      48  33  56 E3        30.32S
$$

PAZ038>040-043-044-047-048-054-055-060>062-067>071-241100-
EASTERN PENNSYLVANIA

CITY           SKY/WX    TMP DP  RH WIND       PRES   REMARKS
SCRANTON       FAIR      47  23  38 CALM      30.35R
MOUNT POCONO   FAIR      34  22  61 S3        30.35R
ALLENTOWN      FAIR      38  26  62 NE6       30.37R
QUAKERTOWN*    SUNNY     34  30  86 CALM      30.37F
READING        FAIR      43  34  70 N5        30.35F
LANCASTER      FAIR      43  35  73 E6        30.34F
COATESVILLE    FAIR      43  30  61 E6        30.36S
POTTSTOWN      FAIR      39  26  59 NE3       30.38S
BLUE BELL      FAIR      34  32  93 CALM      30.39S
DOYLESTOWN     FAIR      36  30  79 CALM      30.37S
WILLOW GROVE   NOT AVBL
NORTH PHILA    FAIR      40  32  73 NE3       30.39F
PHILADELPHIA   MOCLDY    42  36  79 E3        30.38S
$$




USA.gov is the U.S. government's official web portal to all federal, state and local government web resources and services.